Year,Month,Day,Hour,Minute,Value (Times are PST for temperature in C)
2015,03,06,00,00,3.40
2015,03,06,00,01,3.40
2015,03,06,00,02,3.30
2015,03,06,00,03,3.30
2015,03,06,00,04,3.30
2015,03,06,00,05,3.30
2015,03,06,00,06,3.30
2015,03,06,00,07,3.30
2015,03,06,00,08,3.30
2015,03,06,00,09,3.30
2015,03,06,00,10,3.20
2015,03,06,00,11,3.20
2015,03,06,00,12,3.20
2015,03,06,00,13,3.20
2015,03,06,00,17,3.10
2015,03,06,00,18,3.00
2015,03,06,00,19,3.00
2015,03,06,00,20,3.00
2015,03,06,00,21,3.00
2015,03,06,00,22,3.00
2015,03,06,00,23,2.90
2015,03,06,00,24,2.90
2015,03,06,00,25,2.90
2015,03,06,00,26,2.90
2015,03,06,00,27,2.90
2015,03,06,00,28,2.90
2015,03,06,00,29,2.90
2015,03,06,00,30,2.90
2015,03,06,00,31,2.90
2015,03,06,00,32,2.90
2015,03,06,00,33,2.90
2015,03,06,00,34,2.90
2015,03,06,00,35,2.90
2015,03,06,00,36,2.90
2015,03,06,00,37,2.90
2015,03,06,00,38,3.00
2015,03,06,00,39,3.00
2015,03,06,00,40,3.00
2015,03,06,00,41,3.10
2015,03,06,00,42,3.10
2015,03,06,00,43,3.10
2015,03,06,00,44,3.00
2015,03,06,00,45,3.00
2015,03,06,00,46,3.10
2015,03,06,00,47,3.10
2015,03,06,00,48,3.10
2015,03,06,00,49,3.10
2015,03,06,00,50,3.10
2015,03,06,00,51,3.10
2015,03,06,00,52,3.10
2015,03,06,00,53,3.10
2015,03,06,00,54,3.10
2015,03,06,00,55,3.20
2015,03,06,00,56,3.20
2015,03,06,00,57,3.20
2015,03,06,00,58,3.20
2015,03,06,00,59,3.20
2015,03,06,01,00,3.20
2015,03,06,01,01,3.20
2015,03,06,01,02,3.20
2015,03,06,01,03,3.20
2015,03,06,01,04,3.20
2015,03,06,01,05,3.20
2015,03,06,01,06,3.20
2015,03,06,01,07,3.10
2015,03,06,01,08,3.10
2015,03,06,01,09,3.10
2015,03,06,01,10,3.10
2015,03,06,01,11,3.10
2015,03,06,01,12,3.10
2015,03,06,01,13,3.10
2015,03,06,01,14,3.10
2015,03,06,01,15,3.20
2015,03,06,01,16,3.20
2015,03,06,01,17,3.10
2015,03,06,01,18,3.10
2015,03,06,01,19,3.10
2015,03,06,01,20,3.10
2015,03,06,01,21,3.10
2015,03,06,01,22,3.00
2015,03,06,01,23,3.00
2015,03,06,01,24,3.00
2015,03,06,01,25,2.90
2015,03,06,01,26,2.90
2015,03,06,01,27,2.90
2015,03,06,01,28,2.90
2015,03,06,01,29,2.90
2015,03,06,01,30,2.90
2015,03,06,01,31,2.90
2015,03,06,01,32,2.90
2015,03,06,01,33,2.90
2015,03,06,01,34,2.90
2015,03,06,01,35,2.90
2015,03,06,01,36,2.90
2015,03,06,01,37,2.90
2015,03,06,01,38,2.90
2015,03,06,01,39,2.90
2015,03,06,01,40,2.90
2015,03,06,01,41,2.90
2015,03,06,01,42,2.90
2015,03,06,01,43,2.90
2015,03,06,01,44,2.90
2015,03,06,01,45,2.90
2015,03,06,01,46,2.90
2015,03,06,01,47,2.90
2015,03,06,01,48,2.90
2015,03,06,01,49,2.90
2015,03,06,01,50,2.90
2015,03,06,01,51,3.00
2015,03,06,01,52,3.00
2015,03,06,01,53,3.00
2015,03,06,01,54,3.10
2015,03,06,01,55,3.10
2015,03,06,01,56,3.10
2015,03,06,01,57,3.10
2015,03,06,01,58,3.10
2015,03,06,01,59,3.20
2015,03,06,02,00,3.20
2015,03,06,02,01,3.20
2015,03,06,02,02,3.30
2015,03,06,02,03,3.30
2015,03,06,02,04,3.20
2015,03,06,02,05,3.20
2015,03,06,02,06,3.20
2015,03,06,02,07,3.10
2015,03,06,02,08,3.10
2015,03,06,02,09,3.10
2015,03,06,02,10,3.10
2015,03,06,02,11,3.00
2015,03,06,02,12,3.00
2015,03,06,02,13,2.90
2015,03,06,02,14,2.90
2015,03,06,02,15,2.90
2015,03,06,02,16,2.90
2015,03,06,02,17,2.90
2015,03,06,02,18,2.90
2015,03,06,02,19,2.90
2015,03,06,02,20,2.90
2015,03,06,02,21,2.90
2015,03,06,02,22,2.80
2015,03,06,02,23,2.80
2015,03,06,02,24,2.80
2015,03,06,02,25,2.80
2015,03,06,02,26,2.80
2015,03,06,02,27,2.80
2015,03,06,02,28,2.80
2015,03,06,02,29,2.80
2015,03,06,02,30,2.90
2015,03,06,02,31,2.90
2015,03,06,02,32,2.90
2015,03,06,02,33,2.90
2015,03,06,02,34,2.90
2015,03,06,02,35,2.80
2015,03,06,02,36,2.80
2015,03,06,02,37,2.80
2015,03,06,02,38,2.80
2015,03,06,02,39,2.80
2015,03,06,02,40,2.80
2015,03,06,02,41,2.80
2015,03,06,02,42,2.80
2015,03,06,02,43,2.80
2015,03,06,02,44,2.90
2015,03,06,02,45,2.90
2015,03,06,02,46,2.90
2015,03,06,02,47,2.90
2015,03,06,02,48,2.90
2015,03,06,02,49,2.80
2015,03,06,02,50,2.80
2015,03,06,02,51,2.80
2015,03,06,02,52,2.80
2015,03,06,02,53,2.70
2015,03,06,02,54,2.70
2015,03,06,02,55,2.70
2015,03,06,02,56,2.80
2015,03,06,02,57,2.80
2015,03,06,02,58,2.80
2015,03,06,02,59,2.80
2015,03,06,03,00,2.80
2015,03,06,03,01,2.80
2015,03,06,03,02,2.70
2015,03,06,03,03,2.70
2015,03,06,03,04,2.70
2015,03,06,03,05,2.70
2015,03,06,03,06,2.70
2015,03,06,03,07,2.80
2015,03,06,03,08,2.80
2015,03,06,03,09,2.80
2015,03,06,03,10,2.80
2015,03,06,03,11,2.80
2015,03,06,03,12,2.80
2015,03,06,03,13,2.70
2015,03,06,03,14,2.70
2015,03,06,03,15,2.70
2015,03,06,03,16,2.70
2015,03,06,03,17,2.60
2015,03,06,03,18,2.60
2015,03,06,03,19,2.60
2015,03,06,03,20,2.60
2015,03,06,03,21,2.60
2015,03,06,03,22,2.60
2015,03,06,03,23,2.60
2015,03,06,03,24,2.60
2015,03,06,03,25,2.60
2015,03,06,03,26,2.60
2015,03,06,03,27,2.60
2015,03,06,03,28,2.50
2015,03,06,03,29,2.50
2015,03,06,03,30,2.50
2015,03,06,03,31,2.60
2015,03,06,03,32,2.60
2015,03,06,03,33,2.70
2015,03,06,03,34,2.70
2015,03,06,03,35,2.70
2015,03,06,03,36,2.70
2015,03,06,03,37,2.80
2015,03,06,03,38,2.80
2015,03,06,03,39,2.80
2015,03,06,03,40,2.80
2015,03,06,03,41,2.80
2015,03,06,03,42,2.80
2015,03,06,03,43,2.80
2015,03,06,03,44,2.80
2015,03,06,03,45,2.80
2015,03,06,03,46,2.80
2015,03,06,03,47,2.80
2015,03,06,03,48,2.80
2015,03,06,03,49,2.80
2015,03,06,03,50,2.80
2015,03,06,03,51,2.80
2015,03,06,03,52,2.80
2015,03,06,03,53,2.80
2015,03,06,03,54,2.80
2015,03,06,03,55,2.80
2015,03,06,03,56,2.80
2015,03,06,03,57,2.80
2015,03,06,03,58,2.70
2015,03,06,03,59,2.70
2015,03,06,04,00,2.70
2015,03,06,04,01,2.70
2015,03,06,04,02,2.70
2015,03,06,04,03,2.70
2015,03,06,04,04,2.70
2015,03,06,04,05,2.80
2015,03,06,04,06,2.80
2015,03,06,04,07,2.80
2015,03,06,04,08,2.80
2015,03,06,04,09,2.80
2015,03,06,04,10,2.80
2015,03,06,04,11,2.80
2015,03,06,04,12,2.80
2015,03,06,04,13,2.90
2015,03,06,04,14,2.80
2015,03,06,04,15,2.80
2015,03,06,04,16,2.70
2015,03,06,04,17,2.70
2015,03,06,04,18,2.70
2015,03,06,04,19,2.60
2015,03,06,04,20,2.60
2015,03,06,04,21,2.60
2015,03,06,04,22,2.50
2015,03,06,04,23,2.50
2015,03,06,04,24,2.50
2015,03,06,04,25,2.50
2015,03,06,04,26,2.40
2015,03,06,04,27,2.40
2015,03,06,04,28,2.40
2015,03,06,04,29,2.40
2015,03,06,04,30,2.40
2015,03,06,04,31,2.40
2015,03,06,04,32,2.30
2015,03,06,04,33,2.30
2015,03,06,04,34,2.30
2015,03,06,04,35,2.30
2015,03,06,04,36,2.30
2015,03,06,04,37,2.30
2015,03,06,04,38,2.30
2015,03,06,04,39,2.30
2015,03,06,04,40,2.40
2015,03,06,04,41,2.40
2015,03,06,04,42,2.40
2015,03,06,04,43,2.40
2015,03,06,04,44,2.40
2015,03,06,04,45,2.30
2015,03,06,04,46,2.30
2015,03,06,04,47,2.30
2015,03,06,04,48,2.30
2015,03,06,04,49,2.30
2015,03,06,04,50,2.30
2015,03,06,04,51,2.30
2015,03,06,04,52,2.20
2015,03,06,04,53,2.20
2015,03,06,04,54,2.20
2015,03,06,04,55,2.20
2015,03,06,04,56,2.20
2015,03,06,04,57,2.20
2015,03,06,04,58,2.20
2015,03,06,04,59,2.20
2015,03,06,05,00,2.10
2015,03,06,05,01,2.10
2015,03,06,05,02,2.10
2015,03,06,05,03,2.10
2015,03,06,05,04,2.10
2015,03,06,05,05,2.10
2015,03,06,05,06,2.10
2015,03,06,05,07,2.10
2015,03,06,05,08,2.10
2015,03,06,05,09,2.10
2015,03,06,05,10,2.10
2015,03,06,05,11,2.10
2015,03,06,05,12,2.10
2015,03,06,05,13,2.10
2015,03,06,05,14,2.10
2015,03,06,05,15,2.10
2015,03,06,05,16,2.10
2015,03,06,05,17,2.10
2015,03,06,05,18,2.10
2015,03,06,05,19,2.10
2015,03,06,05,20,2.10
2015,03,06,05,21,2.10
2015,03,06,05,22,2.10
2015,03,06,05,23,2.10
2015,03,06,05,24,2.20
2015,03,06,05,25,2.20
2015,03,06,05,26,2.30
2015,03,06,05,27,2.30
2015,03,06,05,28,2.30
2015,03,06,05,29,2.30
2015,03,06,05,30,2.30
2015,03,06,05,31,2.30
2015,03,06,05,32,2.20
2015,03,06,05,33,2.20
2015,03,06,05,34,2.10
2015,03,06,05,35,2.10
2015,03,06,05,36,2.10
2015,03,06,05,37,2.10
2015,03,06,05,38,2.10
2015,03,06,05,39,2.10
2015,03,06,05,40,2.10
2015,03,06,05,41,2.10
2015,03,06,05,42,2.10
2015,03,06,05,43,2.10
2015,03,06,05,44,2.10
2015,03,06,05,45,2.10
2015,03,06,05,46,2.10
2015,03,06,05,47,2.10
2015,03,06,05,48,2.10
2015,03,06,05,49,2.10
2015,03,06,05,50,2.10
2015,03,06,05,51,2.10
2015,03,06,05,52,2.10
2015,03,06,05,53,2.10
2015,03,06,05,54,2.10
2015,03,06,05,55,2.10
2015,03,06,05,56,2.10
2015,03,06,05,57,2.10
2015,03,06,05,58,2.10
2015,03,06,05,59,2.10
2015,03,06,06,00,2.10
2015,03,06,06,01,2.10
2015,03,06,06,02,2.10
2015,03,06,06,03,2.10
2015,03,06,06,04,2.10
2015,03,06,06,05,2.10
2015,03,06,06,06,2.10
2015,03,06,06,07,2.10
2015,03,06,06,08,2.10
2015,03,06,06,09,2.10
2015,03,06,06,10,2.10
2015,03,06,06,11,2.10
2015,03,06,06,12,2.10
2015,03,06,06,13,2.00
2015,03,06,06,14,2.00
2015,03,06,06,15,2.00
2015,03,06,06,16,2.00
2015,03,06,06,17,2.00
2015,03,06,06,18,2.00
2015,03,06,06,19,2.00
2015,03,06,06,20,2.00
2015,03,06,06,21,2.10
2015,03,06,06,22,2.20
2015,03,06,06,23,2.30
2015,03,06,06,24,2.30
2015,03,06,06,25,2.40
2015,03,06,06,26,2.40
2015,03,06,06,27,2.40
2015,03,06,06,28,2.30
2015,03,06,06,29,2.30
2015,03,06,06,30,2.20
2015,03,06,06,31,2.20
2015,03,06,06,32,2.20
2015,03,06,06,33,2.20
2015,03,06,06,34,2.20
2015,03,06,06,35,2.20
2015,03,06,06,36,2.20
2015,03,06,06,37,2.10
2015,03,06,06,38,2.10
2015,03,06,06,39,2.10
2015,03,06,06,40,2.10
2015,03,06,06,41,2.00
2015,03,06,06,42,2.00
2015,03,06,06,43,2.00
2015,03,06,06,44,2.00
2015,03,06,06,45,2.00
2015,03,06,06,46,2.00
2015,03,06,06,47,1.90
2015,03,06,06,48,2.00
2015,03,06,06,49,2.00
2015,03,06,06,50,2.00
2015,03,06,06,51,2.00
2015,03,06,06,52,2.00
2015,03,06,06,53,2.00
2015,03,06,06,54,2.00
2015,03,06,06,55,1.90
2015,03,06,06,56,1.90
2015,03,06,06,57,1.90
2015,03,06,06,58,1.90
2015,03,06,06,59,1.90
2015,03,06,07,00,1.90
2015,03,06,07,01,1.90
2015,03,06,07,02,1.90
2015,03,06,07,03,2.00
2015,03,06,07,04,2.00
2015,03,06,07,05,2.00
2015,03,06,07,06,2.00
2015,03,06,07,07,2.00
2015,03,06,07,08,2.00
2015,03,06,07,09,2.00
2015,03,06,07,10,2.00
2015,03,06,07,11,2.00
2015,03,06,07,12,2.00
2015,03,06,07,13,2.00
2015,03,06,07,14,2.00
2015,03,06,07,15,2.00
2015,03,06,07,16,2.00
2015,03,06,07,17,2.00
2015,03,06,07,18,2.00
2015,03,06,07,19,2.00
2015,03,06,07,20,2.00
2015,03,06,07,21,2.00
2015,03,06,07,22,2.00
2015,03,06,07,23,2.10
2015,03,06,07,24,2.10
2015,03,06,07,25,2.10
2015,03,06,07,26,2.10
2015,03,06,07,27,2.10
2015,03,06,07,28,2.10
2015,03,06,07,29,2.10
2015,03,06,07,30,2.10
2015,03,06,07,31,2.10
2015,03,06,07,32,2.10
2015,03,06,07,33,2.10
2015,03,06,07,34,2.10
2015,03,06,07,35,2.10
2015,03,06,07,36,2.10
2015,03,06,07,37,2.20
2015,03,06,07,38,2.20
2015,03,06,07,39,2.20
2015,03,06,07,40,2.20
2015,03,06,07,41,2.20
2015,03,06,07,42,2.20
2015,03,06,07,43,2.20
2015,03,06,07,44,2.30
2015,03,06,07,45,2.40
2015,03,06,07,46,2.50
2015,03,06,07,47,2.60
2015,03,06,07,48,2.60
2015,03,06,07,49,2.60
2015,03,06,07,50,2.60
2015,03,06,07,51,2.50
2015,03,06,07,52,2.50
2015,03,06,07,53,2.50
2015,03,06,07,54,2.50
2015,03,06,07,55,2.40
2015,03,06,07,56,2.40
2015,03,06,07,57,2.40
2015,03,06,07,58,2.40
2015,03,06,07,59,2.40
2015,03,06,08,00,2.40
2015,03,06,08,01,2.50
2015,03,06,08,02,2.50
2015,03,06,08,03,2.50
2015,03,06,08,04,2.60
2015,03,06,08,05,2.60
2015,03,06,08,06,2.60
2015,03,06,08,07,2.60
2015,03,06,08,08,2.70
2015,03,06,08,09,2.70
2015,03,06,08,10,2.70
2015,03,06,08,11,2.70
2015,03,06,08,12,2.70
2015,03,06,08,13,2.70
2015,03,06,08,14,2.70
2015,03,06,08,15,2.70
2015,03,06,08,16,2.80
2015,03,06,08,17,2.80
2015,03,06,08,18,2.80
2015,03,06,08,19,2.80
2015,03,06,08,20,2.80
2015,03,06,08,21,2.90
2015,03,06,08,22,2.90
2015,03,06,08,23,3.00
2015,03,06,08,24,3.10
2015,03,06,08,25,3.10
2015,03,06,08,26,3.20
2015,03,06,08,27,3.20
2015,03,06,08,28,3.30
2015,03,06,08,29,3.30
2015,03,06,08,30,3.30
2015,03,06,08,31,3.30
2015,03,06,08,32,3.40
2015,03,06,08,33,3.40
2015,03,06,08,34,3.50
2015,03,06,08,35,3.60
2015,03,06,08,36,3.60
2015,03,06,08,37,3.80
2015,03,06,08,38,3.80
2015,03,06,08,39,3.90
2015,03,06,08,40,4.00
2015,03,06,08,41,4.10
2015,03,06,08,42,4.20
2015,03,06,08,43,4.20
2015,03,06,08,44,4.30
2015,03,06,08,45,4.30
2015,03,06,08,46,4.20
2015,03,06,08,47,4.20
2015,03,06,08,48,4.30
2015,03,06,08,49,4.30
2015,03,06,08,50,4.40
2015,03,06,08,51,4.50
2015,03,06,08,52,4.60
2015,03,06,08,53,4.70
2015,03,06,08,54,4.80
2015,03,06,08,55,4.90
2015,03,06,08,56,5.00
2015,03,06,08,57,5.10
2015,03,06,08,58,5.20
2015,03,06,08,59,5.30
2015,03,06,09,00,5.30
2015,03,06,09,01,5.30
2015,03,06,09,02,5.40
2015,03,06,09,03,5.40
2015,03,06,09,04,5.50
2015,03,06,09,05,5.60
2015,03,06,09,06,5.60
2015,03,06,09,07,5.70
2015,03,06,09,08,5.80
2015,03,06,09,09,5.90
2015,03,06,09,10,6.00
2015,03,06,09,11,6.10
2015,03,06,09,12,6.20
2015,03,06,09,13,6.20
2015,03,06,09,14,6.20
2015,03,06,09,15,6.30
2015,03,06,09,16,6.30
2015,03,06,09,17,6.40
2015,03,06,09,18,6.40
2015,03,06,09,19,6.40
2015,03,06,09,20,6.50
2015,03,06,09,21,6.60
2015,03,06,09,22,6.60
2015,03,06,09,23,6.70
2015,03,06,09,24,6.80
2015,03,06,09,25,6.90
2015,03,06,09,26,7.00
2015,03,06,09,27,7.00
2015,03,06,09,28,7.10
2015,03,06,09,29,7.10
2015,03,06,09,30,7.20
2015,03,06,09,31,7.20
2015,03,06,09,32,7.30
2015,03,06,09,33,7.40
2015,03,06,09,34,7.50
2015,03,06,09,35,7.60
2015,03,06,09,36,7.70
2015,03,06,09,37,7.70
2015,03,06,09,38,7.70
2015,03,06,09,39,7.70
2015,03,06,09,40,7.80
2015,03,06,09,41,7.80
2015,03,06,09,42,7.90
2015,03,06,09,43,7.90
2015,03,06,09,44,7.90
2015,03,06,09,45,7.80
2015,03,06,09,46,7.80
2015,03,06,09,47,7.80
2015,03,06,09,48,7.80
2015,03,06,09,49,7.80
2015,03,06,09,50,7.80
2015,03,06,09,51,7.90
2015,03,06,09,52,7.90
2015,03,06,09,53,8.00
2015,03,06,09,54,8.10
2015,03,06,09,55,8.20
2015,03,06,09,56,8.20
2015,03,06,09,57,8.30
2015,03,06,09,58,8.50
2015,03,06,09,59,8.60
2015,03,06,10,00,8.60
2015,03,06,10,01,8.70
2015,03,06,10,02,8.70
2015,03,06,10,03,8.70
2015,03,06,10,04,8.70
2015,03,06,10,05,8.70
2015,03,06,10,06,8.70
2015,03,06,10,07,8.70
2015,03,06,10,08,8.70
2015,03,06,10,09,8.80
2015,03,06,10,10,8.90
2015,03,06,10,11,8.90
2015,03,06,10,12,9.00
2015,03,06,10,13,9.00
2015,03,06,10,14,9.10
2015,03,06,10,15,9.10
2015,03,06,10,16,9.20
2015,03,06,10,17,9.20
2015,03,06,10,18,9.30
2015,03,06,10,19,9.30
2015,03,06,10,20,9.40
2015,03,06,10,21,9.50
2015,03,06,10,22,9.50
2015,03,06,10,23,9.60
2015,03,06,10,24,9.70
2015,03,06,10,25,9.70
2015,03,06,10,26,9.80
2015,03,06,10,27,9.80
2015,03,06,10,28,9.80
2015,03,06,10,29,9.90
2015,03,06,10,30,10.00
2015,03,06,10,31,10.00
2015,03,06,10,32,10.10
2015,03,06,10,33,10.10
2015,03,06,10,34,10.10
2015,03,06,10,35,10.10
2015,03,06,10,36,10.10
2015,03,06,10,37,10.20
2015,03,06,10,38,10.20
2015,03,06,10,39,10.30
2015,03,06,10,40,10.30
2015,03,06,10,41,10.40
2015,03,06,10,42,10.40
2015,03,06,10,43,10.50
2015,03,06,10,44,10.50
2015,03,06,10,45,10.60
2015,03,06,10,46,10.60
2015,03,06,10,47,10.60
2015,03,06,10,48,10.60
2015,03,06,10,49,10.40
2015,03,06,10,50,10.30
2015,03,06,10,51,10.20
2015,03,06,10,52,10.10
2015,03,06,10,53,10.00
2015,03,06,10,54,9.90
2015,03,06,10,55,9.90
2015,03,06,10,56,9.80
2015,03,06,10,57,9.80
2015,03,06,10,58,9.80
2015,03,06,10,59,9.80
2015,03,06,11,00,9.80
2015,03,06,11,01,9.80
2015,03,06,11,02,9.80
2015,03,06,11,03,9.80
2015,03,06,11,04,9.80
2015,03,06,11,05,9.80
2015,03,06,11,06,9.90
2015,03,06,11,07,10.00
2015,03,06,11,08,10.00
2015,03,06,11,09,10.10
2015,03,06,11,10,10.20
2015,03,06,11,11,10.30
2015,03,06,11,12,10.40
2015,03,06,11,13,10.50
2015,03,06,11,14,10.50
2015,03,06,11,15,10.60
2015,03,06,11,16,10.60
2015,03,06,11,17,10.70
2015,03,06,11,18,10.70
2015,03,06,11,19,10.80
2015,03,06,11,20,10.80
2015,03,06,11,21,10.90
2015,03,06,11,22,11.00
2015,03,06,11,23,11.00
2015,03,06,11,24,11.00
2015,03,06,11,25,11.10
2015,03,06,11,26,11.10
2015,03,06,11,27,11.10
2015,03,06,11,28,11.20
2015,03,06,11,29,11.20
2015,03,06,11,30,11.30
2015,03,06,11,31,11.40
2015,03,06,11,32,11.40
2015,03,06,11,33,11.50
2015,03,06,11,34,11.60
2015,03,06,11,35,11.60
2015,03,06,11,36,11.70
2015,03,06,11,37,11.80
2015,03,06,11,38,11.80
2015,03,06,11,39,11.80
2015,03,06,11,40,11.90
2015,03,06,11,41,11.90
2015,03,06,11,42,11.90
2015,03,06,11,43,12.00
2015,03,06,11,44,12.00
2015,03,06,11,45,12.10
2015,03,06,11,46,12.10
2015,03,06,11,47,12.10
2015,03,06,11,48,12.10
2015,03,06,11,49,12.10
2015,03,06,11,50,12.00
2015,03,06,11,51,12.00
2015,03,06,11,52,11.90
2015,03,06,11,53,11.90
2015,03,06,11,54,11.90
2015,03,06,11,55,11.90
2015,03,06,11,56,12.00
2015,03,06,11,57,12.00
2015,03,06,11,58,12.00
2015,03,06,11,59,12.00
2015,03,06,12,00,12.00
2015,03,06,12,01,11.90
2015,03,06,12,02,12.00
2015,03,06,12,03,12.00
2015,03,06,12,04,12.00
2015,03,06,12,05,12.00
2015,03,06,12,06,12.10
2015,03,06,12,07,12.10
2015,03,06,12,08,12.20
2015,03,06,12,09,12.20
2015,03,06,12,10,12.20
2015,03,06,12,11,12.20
2015,03,06,12,12,12.30
2015,03,06,12,13,12.30
2015,03,06,12,14,12.30
2015,03,06,12,15,12.30
2015,03,06,12,16,12.30
2015,03,06,12,17,12.30
2015,03,06,12,18,12.30
2015,03,06,12,19,12.40
2015,03,06,12,20,12.50
2015,03,06,12,21,12.50
2015,03,06,12,22,12.60
2015,03,06,12,23,12.60
2015,03,06,12,24,12.60
2015,03,06,12,25,12.60
2015,03,06,12,26,12.60
2015,03,06,12,27,12.60
2015,03,06,12,28,12.60
2015,03,06,12,29,12.60
2015,03,06,12,30,12.60
2015,03,06,12,31,12.60
2015,03,06,12,32,12.50
2015,03,06,12,33,12.50
2015,03,06,12,34,12.40
2015,03,06,12,35,12.30
2015,03,06,12,36,12.30
2015,03,06,12,37,12.30
2015,03,06,12,38,12.20
2015,03,06,12,39,12.10
2015,03,06,12,40,12.00
2015,03,06,12,41,11.80
2015,03,06,12,42,11.70
2015,03,06,12,43,11.70
2015,03,06,12,44,11.70
2015,03,06,12,45,11.70
2015,03,06,12,46,11.70
2015,03,06,12,47,11.70
2015,03,06,12,48,11.70
2015,03,06,12,49,11.70
2015,03,06,12,50,11.70
2015,03,06,12,51,11.60
2015,03,06,12,52,11.60
2015,03,06,12,53,11.50
2015,03,06,12,54,11.50
2015,03,06,12,55,11.40
2015,03,06,12,56,11.40
2015,03,06,12,57,11.30
2015,03,06,12,58,11.40
2015,03,06,12,59,11.40
2015,03,06,13,00,11.40
2015,03,06,13,01,11.50
2015,03,06,13,02,11.50
2015,03,06,13,03,11.50
2015,03,06,13,04,11.60
2015,03,06,13,05,11.60
2015,03,06,13,06,11.60
2015,03,06,13,07,11.70
2015,03,06,13,08,11.70
2015,03,06,13,09,11.80
2015,03,06,13,10,11.90
2015,03,06,13,11,12.00
2015,03,06,13,12,12.10
2015,03,06,13,13,12.10
2015,03,06,13,14,12.10
2015,03,06,13,15,12.10
2015,03,06,13,16,12.20
2015,03,06,13,17,12.20
2015,03,06,13,18,12.20
2015,03,06,13,19,12.20
2015,03,06,13,20,12.20
2015,03,06,13,21,12.20
2015,03,06,13,22,12.20
2015,03,06,13,23,12.20
2015,03,06,13,24,12.20
2015,03,06,13,25,12.20
2015,03,06,13,26,12.30
2015,03,06,13,27,12.30
2015,03,06,13,28,12.30
2015,03,06,13,29,12.30
2015,03,06,13,30,12.30
2015,03,06,13,31,12.30
2015,03,06,13,32,12.30
2015,03,06,13,33,12.30
2015,03,06,13,34,12.30
2015,03,06,13,35,12.30
2015,03,06,13,36,12.30
2015,03,06,13,37,12.40
2015,03,06,13,38,12.40
2015,03,06,13,39,12.40
2015,03,06,13,40,12.40
2015,03,06,13,41,12.40
2015,03,06,13,42,12.30
2015,03,06,13,43,12.40
2015,03,06,13,44,12.30
2015,03,06,13,45,12.30
2015,03,06,13,46,12.20
2015,03,06,13,47,12.20
2015,03,06,13,48,12.20
2015,03,06,13,49,12.20
2015,03,06,13,50,12.20
2015,03,06,13,51,12.20
2015,03,06,13,52,12.20
2015,03,06,13,53,12.30
2015,03,06,13,54,12.30
2015,03,06,13,55,12.30
2015,03,06,13,56,12.40
2015,03,06,13,57,12.40
2015,03,06,13,58,12.40
2015,03,06,13,59,12.30
2015,03,06,14,00,12.30
2015,03,06,14,01,12.30
2015,03,06,14,02,12.30
2015,03,06,14,03,12.30
2015,03,06,14,04,12.30
2015,03,06,14,05,12.30
2015,03,06,14,06,12.30
2015,03,06,14,07,12.30
2015,03,06,14,08,12.30
2015,03,06,14,09,12.30
2015,03,06,14,10,12.40
2015,03,06,14,11,12.40
2015,03,06,14,12,12.50
2015,03,06,14,13,12.50
2015,03,06,14,14,12.60
2015,03,06,14,15,12.70
2015,03,06,14,16,12.80
2015,03,06,14,17,12.80
2015,03,06,14,18,12.80
2015,03,06,14,19,12.80
2015,03,06,14,20,12.80
2015,03,06,14,21,12.70
2015,03,06,14,22,12.70
2015,03,06,14,23,12.60
2015,03,06,14,24,12.50
2015,03,06,14,25,12.40
2015,03,06,14,26,12.30
2015,03,06,14,27,12.30
2015,03,06,14,28,12.20
2015,03,06,14,29,12.20
2015,03,06,14,30,12.20
2015,03,06,14,31,12.10
2015,03,06,14,32,12.10
2015,03,06,14,33,12.10
2015,03,06,14,34,12.10
2015,03,06,14,35,12.10
2015,03,06,14,36,12.10
2015,03,06,14,37,12.10
2015,03,06,14,38,12.10
2015,03,06,14,39,12.10
2015,03,06,14,40,12.20
2015,03,06,14,41,12.20
2015,03,06,14,42,12.10
2015,03,06,14,43,12.10
2015,03,06,14,44,12.00
2015,03,06,14,45,11.90
2015,03,06,14,46,11.90
2015,03,06,14,47,11.90
2015,03,06,14,48,11.80
2015,03,06,14,49,11.80
2015,03,06,14,50,11.70
2015,03,06,14,51,11.70
2015,03,06,14,52,11.70
2015,03,06,14,53,11.70
2015,03,06,14,54,11.70
2015,03,06,14,55,11.60
2015,03,06,14,56,11.60
2015,03,06,14,57,11.60
2015,03,06,14,58,11.60
2015,03,06,14,59,11.50
2015,03,06,15,00,11.50
2015,03,06,15,01,11.50
2015,03,06,15,02,11.50
2015,03,06,15,03,11.40
2015,03,06,15,04,11.50
2015,03,06,15,05,11.50
2015,03,06,15,06,11.60
2015,03,06,15,07,11.60
2015,03,06,15,08,11.70
2015,03,06,15,09,11.60
2015,03,06,15,10,11.60
2015,03,06,15,11,11.60
2015,03,06,15,12,11.60
2015,03,06,15,13,11.60
2015,03,06,15,14,11.60
2015,03,06,15,15,11.60
2015,03,06,15,16,11.60
2015,03,06,15,17,11.60
2015,03,06,15,18,11.70
2015,03,06,15,19,11.70
2015,03,06,15,20,11.70
2015,03,06,15,21,11.70
2015,03,06,15,22,11.70
2015,03,06,15,23,11.70
2015,03,06,15,24,11.80
2015,03,06,15,25,11.80
2015,03,06,15,26,11.80
2015,03,06,15,27,11.80
2015,03,06,15,28,11.90
2015,03,06,15,29,11.90
2015,03,06,15,30,11.90
2015,03,06,15,31,11.90
2015,03,06,15,32,11.90
2015,03,06,15,33,11.90
2015,03,06,15,34,11.90
2015,03,06,15,35,11.90
2015,03,06,15,36,11.90
2015,03,06,15,37,12.00
2015,03,06,15,38,12.00
2015,03,06,15,39,12.00
2015,03,06,15,40,12.10
2015,03,06,15,41,12.10
2015,03,06,15,42,12.20
2015,03,06,15,43,12.20
2015,03,06,15,44,12.20
2015,03,06,15,45,12.30
2015,03,06,15,46,12.30
2015,03,06,15,47,12.30
2015,03,06,15,48,12.30
2015,03,06,15,49,12.30
2015,03,06,15,50,12.30
2015,03,06,15,51,12.30
2015,03,06,15,52,12.20
2015,03,06,15,53,12.20
2015,03,06,15,54,12.20
2015,03,06,15,55,12.20
2015,03,06,15,56,12.10
2015,03,06,15,57,12.10
2015,03,06,15,58,12.10
2015,03,06,15,59,12.10
2015,03,06,16,00,12.00
2015,03,06,16,01,12.00
2015,03,06,16,02,12.00
2015,03,06,16,03,11.90
2015,03,06,16,04,11.90
2015,03,06,16,05,11.90
2015,03,06,16,06,11.90
2015,03,06,16,07,11.90
2015,03,06,16,08,11.80
2015,03,06,16,09,11.80
2015,03,06,16,10,11.80
2015,03,06,16,11,11.70
2015,03,06,16,12,11.70
2015,03,06,16,13,11.70
2015,03,06,16,14,11.70
2015,03,06,16,15,11.70
2015,03,06,16,16,11.70
2015,03,06,16,17,11.80
2015,03,06,16,18,11.80
2015,03,06,16,19,11.90
2015,03,06,16,20,11.90
2015,03,06,16,21,12.00
2015,03,06,16,22,12.00
2015,03,06,16,23,12.10
2015,03,06,16,24,12.10
2015,03,06,16,25,12.10
2015,03,06,16,26,12.10
2015,03,06,16,27,12.10
2015,03,06,16,28,12.10
2015,03,06,16,29,12.10
2015,03,06,16,30,12.20
2015,03,06,16,31,12.20
2015,03,06,16,32,12.20
2015,03,06,16,33,12.30
2015,03,06,16,34,12.30
2015,03,06,16,35,12.30
2015,03,06,16,36,12.40
2015,03,06,16,37,12.40
2015,03,06,16,38,12.50
2015,03,06,16,39,12.50
2015,03,06,16,40,12.60
2015,03,06,16,41,12.60
2015,03,06,16,42,12.60
2015,03,06,16,43,12.60
2015,03,06,16,44,12.70
2015,03,06,16,45,12.60
2015,03,06,16,46,12.60
2015,03,06,16,47,12.60
2015,03,06,16,48,12.50
2015,03,06,16,49,12.50
2015,03,06,16,50,12.40
2015,03,06,16,51,12.40
2015,03,06,16,52,12.30
2015,03,06,16,53,12.20
2015,03,06,16,54,12.20
2015,03,06,16,55,12.10
2015,03,06,16,56,12.10
2015,03,06,16,57,12.00
2015,03,06,16,58,12.00
2015,03,06,16,59,12.00
2015,03,06,17,00,11.90
2015,03,06,17,01,11.90
2015,03,06,17,02,11.90
2015,03,06,17,03,11.90
2015,03,06,17,04,11.90
2015,03,06,17,05,11.90
2015,03,06,17,06,11.80
2015,03,06,17,07,11.80
2015,03,06,17,08,11.80
2015,03,06,17,09,11.80
2015,03,06,17,10,11.80
2015,03,06,17,11,11.70
2015,03,06,17,12,11.70
2015,03,06,17,13,11.60
2015,03,06,17,14,11.60
2015,03,06,17,15,11.50
2015,03,06,17,16,11.50
2015,03,06,17,17,11.40
2015,03,06,17,18,11.30
2015,03,06,17,19,11.30
2015,03,06,17,20,11.20
2015,03,06,17,21,11.10
2015,03,06,17,22,11.00
2015,03,06,17,23,11.00
2015,03,06,17,24,10.90
2015,03,06,17,25,10.80
2015,03,06,17,26,10.70
2015,03,06,17,27,10.70
2015,03,06,17,28,10.70
2015,03,06,17,29,10.60
2015,03,06,17,30,10.60
2015,03,06,17,31,10.60
2015,03,06,17,32,10.50
2015,03,06,17,33,10.50
2015,03,06,17,34,10.40
2015,03,06,17,35,10.40
2015,03,06,17,36,10.30
2015,03,06,17,37,10.30
2015,03,06,17,38,10.20
2015,03,06,17,39,10.10
2015,03,06,17,40,10.10
2015,03,06,17,41,10.10
2015,03,06,17,42,10.00
2015,03,06,17,43,10.00
2015,03,06,17,44,9.90
2015,03,06,17,45,9.90
2015,03,06,17,46,9.90
2015,03,06,17,47,9.80
2015,03,06,17,48,9.80
2015,03,06,17,49,9.70
2015,03,06,17,50,9.70